GW5804 Weather Reports


time (UTC)temp
C
wind
direction
speed
KPH
gust
KPH
rain 1hr
cm
rain 24hr
cm
rain mn
cm
humidity
%
barometer
mb
20260507075030 13 159 6.4 9.7 0.00 1.09 1.09 97 1013.5
20260507074526 13 167 3.2 6.4 0.00 1.09 1.09 97 1013.5
20260507074025 13 191 3.2 4.8 0.00 1.09 1.09 97 1013.4
20260507073521 13 160 9.7 11.3 0.00 1.09 1.09 97 1013.3
20260507073018 13 201 14.5 20.9 0.00 1.09 1.09 97 1013.4
20260507072515 13 164 8.0 11.3 0.00 1.09 1.09 97 1013.4
20260507072012 13 195 9.7 12.9 0.00 1.09 1.09 97 1013.3
20260507071509 13 148 9.7 12.9 0.00 1.09 1.09 97 1013.3
20260507071006 13 191 16.1 17.7 0.00 1.09 1.09 97 1013.2
20260507070503 13 135 6.4 9.7 0.00 1.09 1.09 97 1013.1
20260507070000 13 163 3.2 11.3 0.00 1.09 1.09 97 1013.1
20260507065456 13 107 12.9 22.5 0.00 1.09 1.09 97 1012.8
20260507064954 13 176 4.8 6.4 0.00 1.09 1.09 97 1012.9
20260507064452 13 166 6.4 11.3 0.00 1.09 1.09 97 1012.9
20260507063949 13 96 14.5 20.9 0.00 1.09 1.09 97 1012.8
20260507063446 13 132 3.2 6.4 0.00 1.09 1.09 97 1012.9
20260507062943 13 115 4.8 4.8 0.00 1.09 1.09 97 1012.8
20260507062441 13 223 8.0 11.3 0.00 1.09 1.09 97 1012.9
20260507061938 13 141 1.6 3.2 0.00 1.09 1.09 97 1012.8
20260507061436 13 172 6.4 11.3 0.00 1.09 1.09 97 1012.9
20260507060934 13 186 11.3 16.1 0.00 1.09 1.09 97 1012.8
20260507060430 13 123 6.4 11.3 0.00 1.09 1.09 97 1012.7
20260507055927 13 142 6.4 9.7 0.18 1.09 1.09 97 1012.6
20260507055422 13 70 6.4 11.3 0.18 1.09 1.09 97 1012.7
20260507054920 13 156 6.4 11.3 0.00 1.07 1.07 97 1012.6
20260507054415 13 155 4.8 4.8 0.18 1.07 1.07 97 1012.8
20260507053913 13 140 4.8 6.4 0.18 1.07 1.07 97 1012.7
20260507053410 13 106 8.0 9.7 0.00 1.04 1.04 97 1012.5
20260507052909 13 186 8.0 11.3 0.00 1.04 1.04 97 1012.5
20260507052406 13 130 4.8 6.4 0.00 1.04 1.04 97 1012.6
20260507051903 13 118 6.4 9.7 0.00 1.04 1.04 97 1012.7
20260507051401 13 78 4.8 6.4 0.00 1.04 1.04 97 1012.5
20260507050857 13 148 1.6 3.2 0.00 1.04 1.04 97 1012.4
20260507050354 13 305 0.0 0.0 0.00 1.04 1.04 97 1012.4
20260507045851 13 85 0.0 0.0 0.13 1.04 1.04 97 1012.4
20260507045347 13 22 0.0 0.0 0.13 1.04 1.04 97 1012.4
20260507044845 13 88 1.6 1.6 0.79 1.02 1.02 97 1012.5
20260507044341 13 144 4.8 4.8 0.79 1.02 1.02 97 1012.3
20260507043837 13 87 3.2 4.8 0.30 0.91 0.91 97 1012.3
20260507043334 13 121 3.2 4.8 0.30 0.89 0.89 97 1012.2
20260507042830 13 128 6.4 11.3 0.18 0.86 0.86 96 1011.8
20260507042326 13 146 6.4 11.3 0.13 0.84 0.84 96 1012.1
20260507041823 13 192 4.8 6.4 0.30 0.84 0.84 96 1011.9
20260507041319 13 170 3.2 6.4 0.18 0.81 0.81 96 1011.9
20260507040816 13 89 9.7 12.9 0.30 0.79 0.79 96 1011.9
20260507040312 13 140 9.7 12.9 0.30 0.79 0.79 96 1011.9
20260507035808 13 114 8.0 14.5 0.00 0.74 0.74 96 1011.7
20260507035306 13 130 8.0 11.3 0.18 0.74 0.74 96 1011.8
20260507034802 13 175 6.4 11.3 0.18 0.74 0.74 96 1011.7
20260507034258 13 172 9.7 12.9 0.13 0.71 0.71 96 1011.9
20260507033757 13 173 3.2 4.8 0.13 0.71 0.71 95 1011.9
20260507033254 13 155 6.4 9.7 0.00 0.69 0.69 95 1011.8
20260507032751 13 220 6.4 11.3 0.00 0.69 0.69 95 1011.9
20260507032247 14 175 0.0 1.6 0.00 0.69 0.69 95 1012.1
20260507031743 14 183 1.6 3.2 0.18 0.69 0.69 94 1012.1
20260507031241 14 136 3.2 4.8 1.55 0.69 0.69 94 1012.1
20260507030737 14 177 1.6 1.6 2.46 0.69 0.69 94 1012.1
20260507030235 14 211 0.0 1.6 2.46 0.48 0.48 93 1012.2
20260507025732 14 322 3.2 9.7 1.55 0.25 0.25 92 1012.1
20260507025229 14 268 4.8 6.4 0.48 0.08 0.08 91 1011.9
20260507024727 14 290 1.6 3.2 0.00 0.00 0.00 91 1011.9
20260507024224 14 295 0.0 0.0 0.00 0.00 0.00 91 1011.9
20260507023720 14 266 0.0 0.0 0.00 0.00 0.00 91 1011.8
20260507023217 14 237 1.6 3.2 0.00 0.00 0.00 91 1011.5
20260507022714 14 85 3.2 4.8 0.00 0.00 0.00 90 1011.5
20260507022210 14 279 0.0 0.0 0.00 0.00 0.00 90 1011.5
20260507021706 14 185 3.2 3.2 0.00 0.00 0.00 90 1011.7
20260507021201 15 165 3.2 4.8 0.00 0.00 0.00 89 1011.6
20260507020701 15 130 3.2 4.8 0.00 0.00 0.00 89 1011.7
20260507020156 15 129 8.0 11.3 0.00 0.00 0.00 88 1011.6
20260507015654 15 168 4.8 6.4 0.00 0.00 0.00 87 1011.5
20260507015151 15 200 6.4 11.3 0.00 0.00 0.00 86 1011.8
20260507014648 15 170 4.8 6.4 0.00 0.00 0.00 86 1011.8
20260507014144 15 185 3.2 3.2 0.00 0.00 0.00 85 1011.7
20260507013641 15 218 9.7 16.1 0.00 0.00 0.00 84 1011.7
20260507013138 15 159 1.6 3.2 0.00 0.00 0.00 84 1011.7
20260507012636 15 151 6.4 9.7 0.00 0.00 0.00 83 1011.7
20260507012130 15 167 3.2 4.8 0.00 0.00 0.00 83 1011.4
20260507011629 15 206 8.0 12.9 0.00 0.00 0.00 82 1011.4
20260507011125 15 142 3.2 4.8 0.00 0.00 0.00 82 1011.5
20260507010620 15 142 3.2 4.8 0.00 0.00 0.00 82 1011.5
20260507010116 15 177 8.0 11.3 0.00 0.00 0.00 81 1011.4
20260507005614 15 231 3.2 4.8 0.00 0.00 0.00 80 1011.4
20260507005109 15 163 6.4 9.7 0.00 0.00 0.00 81 1011.6
20260507004607 15 219 6.4 9.7 0.00 0.00 0.00 80 1011.4
20260507004104 15 220 3.2 6.4 0.00 0.00 0.00 80 1011.6
20260507003600 15 148 8.0 12.9 0.00 0.00 0.00 80 1011.6
20260507003055 15 194 4.8 9.7 0.00 0.00 0.00 79 1011.8
20260507002552 15 210 6.4 9.7 0.00 0.00 0.00 78 1011.7
20260507002048 15 235 9.7 16.1 0.00 0.00 0.00 78 1011.7
20260507001544 15 213 4.8 6.4 0.00 0.00 0.00 77 1011.8
20260507001042 15 198 6.4 9.7 0.00 0.00 0.00 77 1011.8
20260507000538 15 223 8.0 11.3 0.00 0.00 0.00 78 1011.8
20260507000033 15 223 9.7 11.3 0.00 0.00 0.00 78 1011.7
20260506235531 15 224 6.4 9.7 0.00 0.00 0.00 79 1011.8
20260506235027 15 170 9.7 12.9 0.00 0.00 0.00 79 1011.7
20260506234525 15 193 4.8 11.3 0.00 0.00 0.00 79 1012.2
20260506234022 15 165 14.5 17.7 0.00 0.00 0.00 79 1012.1
20260506233518 15 152 16.1 22.5 0.00 0.00 0.00 78 1012.1
20260506233015 15 134 14.5 22.5 0.00 0.00 0.00 78 1011.9
20260506232511 15 84 12.9 16.1 0.00 0.00 0.00 79 1012.3
20260506232007 15 139 6.4 6.4 0.00 0.00 0.00 79 1012.5
20260506231505 15 209 6.4 11.3 0.00 0.00 0.00 79 1012.2
20260506231002 15 194 9.7 14.5 0.00 0.00 0.00 79 1012.2
20260506230458 15 200 12.9 16.1 0.00 0.00 0.00 79 1012.2
20260506225955 15 171 8.0 17.7 0.00 0.99 0.99 78 1012.1
20260506225452 15 155 8.0 14.5 0.00 0.99 0.99 78 1012.2
20260506224949 15 226 4.8 11.3 0.00 0.99 0.99 78 1012.1
20260506224446 15 65 8.0 11.3 0.00 0.99 0.99 79 1012.2
20260506223942 15 155 8.0 16.1 0.00 0.99 0.99 80 1012.1
20260506223438 15 110 6.4 9.7 0.00 0.99 0.99 80 1012.3
20260506222936 15 187 16.1 20.9 0.00 0.99 0.99 79 1012.1
20260506222432 15 163 12.9 14.5 0.00 0.99 0.99 79 1012.2
20260506221929 15 170 9.7 14.5 0.00 0.99 0.99 79 1012.2
20260506221426 15 151 8.0 11.3 0.00 0.99 0.99 78 1012.2
20260506220924 15 111 8.0 11.3 0.00 0.99 0.99 78 1012.1
20260506220419 15 149 4.8 6.4 0.00 0.99 0.99 78 1012.1
20260506215916 15 150 8.0 12.9 0.00 0.99 0.99 78 1011.9
20260506215412 15 138 9.7 16.1 0.00 0.99 0.99 77 1011.9
20260506214908 15 179 12.9 20.9 0.00 0.99 0.99 76 1011.9
20260506214405 15 180 9.7 17.7 0.00 0.99 0.99 78 1012.1
20260506213903 15 158 8.0 14.5 0.00 0.99 0.99 80 1012.1
20260506213400 15 111 9.7 14.5 0.00 0.99 0.99 79 1011.9
20260506212857 15 212 14.5 17.7 0.00 0.99 0.99 80 1012.1
20260506212353 15 208 12.9 16.1 0.00 0.99 0.99 80 1011.7
20260506211848 15 163 8.0 11.3 0.00 0.99 0.99 80 1011.9
20260506211344 15 197 8.0 9.7 0.00 0.99 0.99 81 1011.8
20260506210842 15 130 9.7 12.9 0.00 0.99 0.99 81 1011.9
20260506210338 15 121 14.5 17.7 0.00 0.99 0.99 82 1011.7
20260506205836 15 135 8.0 11.3 0.00 0.99 0.99 82 1011.7
20260506205331 15 188 8.0 17.7 0.00 0.99 0.99 82 1011.7
20260506204828 15 189 11.3 16.1 0.00 0.99 0.99 83 1011.8
20260506204326 15 185 9.7 22.5 0.00 0.99 0.99 82 1011.5
20260506203823 15 127 11.3 17.7 0.00 0.99 0.99 82 1011.6
20260506203320 15 170 12.9 22.5 0.00 0.99 0.99 83 1011.7
20260506202817 15 197 17.7 22.5 0.00 0.99 0.99 82 1011.7
20260506202314 15 193 17.7 20.9 0.00 0.99 0.99 82 1011.6
20260506201810 15 76 6.4 6.4 0.00 0.99 0.99 83 1011.7
20260506201308 15 151 11.3 17.7 0.00 0.99 0.99 82 1011.5
20260506200805 15 135 14.5 25.7 0.00 0.99 0.99 82 1011.4
20260506200301 15 175 8.0 12.9 0.00 0.99 0.99 82 1011.3
20260506195757 15 160 14.5 25.7 0.00 0.99 0.99 82 1011.6
20260506195254 15 154 9.7 16.1 0.00 0.99 0.99 83 1011.4
20260506194751 15 181 14.5 17.7 0.00 0.99 0.99 83 1011.1
20260506194247 15 71 9.7 12.9 0.00 0.99 0.99 83 1011.3
20260506193746 15 187 9.7 12.9 0.00 0.99 0.99 84 1011.2
20260506193242 15 203 9.7 14.5 0.00 0.99 0.99 84 1011.1
20260506192738 15 171 12.9 22.5 0.00 0.99 0.99 84 1011.2
20260506192235 15 72 16.1 24.1 0.00 0.99 0.99 85 1011.2
20260506191732 15 153 12.9 16.1 0.00 0.99 0.99 85 1011.1
20260506191228 15 162 9.7 14.5 0.00 0.99 0.99 85 1011.3
20260506190726 15 211 8.0 11.3 0.00 0.99 0.99 86 1011.1
20260506190222 15 144 9.7 12.9 0.00 0.99 0.99 85 1010.9
20260506185719 16 199 11.3 17.7 0.00 0.99 0.99 86 1010.8
20260506185215 16 234 11.3 16.1 0.00 0.99 0.99 85 1010.8
20260506184713 16 170 17.7 27.4 0.00 0.99 0.99 85 1010.7
20260506184210 15 104 9.7 12.9 0.00 0.99 0.99 86 1010.6
20260506183707 15 206 9.7 12.9 0.00 0.99 0.99 87 1010.8
20260506183203 15 107 17.7 25.7 0.00 0.99 0.99 87 1010.9
20260506182700 15 109 11.3 16.1 0.00 0.99 0.99 87 1010.8
20260506182157 15 180 14.5 16.1 0.00 0.99 0.99 87 1010.6
20260506181655 15 175 11.3 27.4 0.00 0.99 0.99 87 1010.5
20260506181152 15 158 11.3 17.7 0.00 0.99 0.99 88 1010.5
20260506180649 15 210 14.5 14.5 0.00 0.99 0.99 88 1010.4
20260506180145 15 153 9.7 14.5 0.00 0.99 0.99 89 1010.5
20260506175642 16 134 6.4 14.5 0.00 0.99 0.99 89 1010.4
20260506175139 15 115 8.0 12.9 0.00 0.99 0.99 89 1010.4
20260506174637 15 175 12.9 22.5 0.00 0.99 0.99 89 1010.6
20260506174134 15 158 14.5 17.7 0.00 0.99 0.99 89 1010.3
20260506173631 16 105 11.3 17.7 0.00 0.99 0.99 89 1010.6
20260506173128 16 148 9.7 14.5 0.00 0.99 0.99 89 1010.5
20260506172625 16 127 12.9 16.1 0.00 0.99 0.99 90 1010.8
20260506172121 15 157 11.3 17.7 0.00 0.99 0.99 90 1010.9
20260506171619 15 146 8.0 11.3 0.00 0.99 0.99 91 1010.8
20260506171117 15 118 14.5 25.7 0.00 0.99 0.99 91 1010.8
20260506170615 15 255 9.7 12.9 0.00 0.99 0.99 91 1010.6
20260506170111 15 156 8.0 14.5 0.00 0.99 0.99 91 1010.6
20260506165609 15 232 12.9 17.7 0.00 0.99 0.99 92 1010.7
20260506165105 15 179 8.0 12.9 0.00 0.99 0.99 92 1010.8
20260506164603 15 154 8.0 9.7 0.00 0.99 0.99 92 1010.6
20260506164100 15 235 6.4 6.4 0.00 0.99 0.99 91 1010.9
20260506163555 15 151 3.2 4.8 0.00 0.99 0.99 91 1011.1
20260506163051 15 221 8.0 11.3 0.00 0.99 0.99 91 1010.9
20260506162548 15 167 8.0 12.9 0.00 0.99 0.99 91 1010.7
20260506162045 16 94 9.7 20.9 0.00 0.99 0.99 92 1010.9
20260506161543 16 240 6.4 6.4 0.00 0.99 0.99 91 1010.8
20260506161039 16 144 3.2 6.4 0.00 0.99 0.99 91 1010.9
20260506160537 16 164 9.7 12.9 0.00 0.99 0.99 91 1011.1
20260506160034 16 178 12.9 17.7 0.00 0.99 0.99 90 1010.9
20260506155532 16 206 8.0 9.7 0.00 0.99 0.99 90 1011.0
20260506153703 16 182 6.4 9.7 0.00 0.99 0.99 90 1011.1
20260506153201 16 137 9.7 14.5 0.00 0.99 0.99 90 1011.0
20260506152657 16 218 4.8 6.4 0.00 0.99 0.99 90 1011.2
20260506152155 16 141 8.0 12.9 0.00 0.99 0.99 91 1011.3
20260506151654 16 176 9.7 14.5 0.00 0.99 0.99 91 1011.4
20260506151150 16 107 6.4 9.7 0.00 0.99 0.99 90 1011.2
20260506150647 16 142 6.4 9.7 0.00 0.99 0.99 90 1011.3
20260506150144 16 190 12.9 16.1 0.00 0.99 0.99 90 1011.3
20260506145640 16 198 11.3 16.1 0.00 0.99 0.99 91 1011.3
20260506145137 16 132 9.7 17.7 0.00 0.99 0.99 91 1011.3
20260506144635 16 228 22.5 27.4 0.00 0.99 0.99 91 1011.2
20260506144131 16 30 9.7 14.5 0.00 0.99 0.99 92 1011.4
20260506143629 15 180 12.9 17.7 0.00 0.99 0.99 93 1011.2
20260506143127 15 149 4.8 6.4 0.00 0.99 0.99 94 1011.4
20260506142625 15 95 6.4 14.5 0.00 0.99 0.99 94 1011.4
20260506142123 15 133 9.7 11.3 0.00 0.99 0.99 94 1011.4
20260506141620 15 118 6.4 11.3 0.00 0.99 0.99 95 1011.6
20260506141119 15 158 12.9 20.9 0.00 0.99 0.99 95 1011.5
20260506140616 15 127 9.7 14.5 0.00 0.99 0.99 96 1011.8
20260506140113 15 164 12.9 16.1 0.00 0.99 0.99 96 1011.6
20260506135610 15 153 6.4 9.7 0.00 0.99 0.99 96 1011.6
20260506135106 15 238 4.8 11.3 0.00 0.99 0.99 96 1011.8
20260506134602 15 131 4.8 9.7 0.00 0.99 0.99 96 1011.6
20260506134058 15 217 6.4 9.7 0.00 0.99 0.99 96 1011.7
20260506133555 15 105 8.0 11.3 0.00 0.99 0.99 96 1011.8
20260506133053 15 189 6.4 9.7 0.00 0.99 0.99 97 1011.8
20260506132550 15 140 8.0 9.7 0.00 0.99 0.99 97 1012.1
20260506132047 15 150 8.0 11.3 0.00 0.99 0.99 96 1012.2
20260506131544 15 188 8.0 11.3 0.00 0.99 0.99 97 1012.2
20260506131040 15 167 6.4 11.3 0.00 0.99 0.99 97 1012.4
20260506130537 15 177 8.0 9.7 0.00 0.99 0.99 97 1012.1
20260506130035 15 231 9.7 11.3 0.00 0.99 0.99 97 1012.1
20260506125533 15 135 3.2 4.8 0.00 0.99 0.99 97 1012.2
20260506125031 15 182 3.2 3.2 0.00 0.99 0.99 97 1012.2
20260506124528 15 178 4.8 11.3 0.00 0.99 0.99 97 1012.1
20260506124026 15 159 11.3 16.1 0.00 0.99 0.99 97 1012.5
20260506123523 15 244 3.2 3.2 0.00 0.99 0.99 97 1012.1
20260506123021 15 130 3.2 4.8 0.00 0.99 0.99 97 1012.3
20260506122518 15 186 4.8 6.4 0.00 0.99 0.99 97 1012.2
20260506122016 15 165 3.2 9.7 0.00 0.99 0.99 96 1012.1
20260506121513 15 247 3.2 4.8 0.00 0.99 0.99 96 1012.2
20260506121009 15 214 6.4 12.9 0.00 0.99 0.99 96 1012.2
20260506120508 15 236 4.8 4.8 0.00 0.99 0.99 96 1012.3
20260506120005 14 151 4.8 4.8 0.00 0.99 0.99 97 1012.2
20260506115502 14 255 0.0 0.0 0.00 0.99 0.99 96 1012.4
20260506115000 14 258 0.0 0.0 0.00 0.99 0.99 96 1012.4
20260506114457 14 148 4.8 6.4 0.00 0.99 0.99 96 1012.2
20260506113956 14 177 1.6 1.6 0.00 0.99 0.99 96 1012.4
20260506113453 14 163 3.2 4.8 0.00 0.99 0.99 96 1012.3
20260506112950 13 204 4.8 4.8 0.00 0.99 0.99 96 1012.3
20260506112447 13 238 3.2 4.8 0.00 0.99 0.99 96 1012.4
20260506111944 13 200 0.0 1.6 0.00 0.99 0.99 96 1012.4
20260506111443 13 259 0.0 0.0 0.00 0.99 0.99 96 1012.7
20260506110939 13 259 0.0 0.0 0.00 0.99 0.99 96 1012.6
20260506110437 13 251 0.0 0.0 0.00 0.99 0.99 96 1012.7
20260506105933 13 258 0.0 0.0 0.00 0.99 0.99 96 1012.7
20260506105430 13 146 0.0 0.0 0.00 0.99 0.99 96 1012.8
20260506104927 13 114 1.6 3.2 0.00 0.99 0.99 95 1012.6
20260506104425 13 78 1.6 3.2 0.00 0.99 0.99 95 1012.7
20260506103923 13 241 0.0 0.0 0.00 0.99 0.99 95 1012.7
20260506103420 13 133 0.0 1.6 0.00 0.99 0.99 95 1012.9
20260506102917 13 151 4.8 4.8 0.00 0.99 0.99 95 1012.9
20260506102415 13 110 4.8 6.4 0.00 0.99 0.99 95 1012.7
20260506101912 13 101 4.8 9.7 0.00 0.99 0.99 95 1012.9
20260506101408 13 130 4.8 6.4 0.00 0.99 0.99 95 1013.0
20260506100906 13 130 3.2 4.8 0.00 0.99 0.99 95 1012.9
20260506100404 13 174 8.0 12.9 0.13 0.99 0.99 95 1013.0
20260506095902 13 168 8.0 9.7 0.13 0.99 0.99 95 1012.9
20260506095400 13 112 4.8 6.4 0.00 0.97 0.97 95 1012.9
20260506094856 13 203 1.6 3.2 0.00 0.97 0.97 95 1012.8
20260506094355 12 125 4.8 9.7 0.00 0.97 0.97 96 1012.9
20260506093852 12 139 6.4 6.4 0.18 0.97 0.97 95 1012.8
20260506093350 12 109 1.6 3.2 0.18 0.97 0.97 95 1012.9
20260506092847 12 199 3.2 3.2 0.13 0.94 0.94 95 1013.0
20260506092345 12 109 4.8 6.4 0.13 0.94 0.94 95 1013.1
20260506091841 12 167 3.2 4.8 0.18 0.91 0.91 95 1013.1
20260506091339 12 120 3.2 6.4 0.48 0.91 0.91 95 1012.9
20260506090836 12 112 3.2 3.2 0.30 0.89 0.89 95 1013.2
20260506090334 13 110 6.4 6.4 0.30 0.84 0.84 95 1013.0
20260506085830 13 113 4.8 6.4 0.48 0.84 0.84 95 1013.0
20260506085326 13 114 6.4 6.4 0.48 0.81 0.81 95 1013.1
20260506084823 12 178 6.4 9.7 0.13 0.76 0.76 95 1013.3
20260506084320 12 155 4.8 9.7 0.30 0.74 0.74 94 1013.0
20260506083817 12 148 4.8 6.4 0.30 0.74 0.74 94 1013.1
20260506083314 12 181 4.8 6.4 0.18 0.69 0.69 94 1013.1
20260506082812 12 169 4.8 9.7 0.30 0.69 0.69 94 1012.9
20260506082308 12 148 8.0 11.3 0.43 0.66 0.66 94 1013.0
20260506081805 12 161 6.4 9.7 0.48 0.64 0.64 93 1013.0
20260506081302 12 116 8.0 12.9 0.61 0.58 0.58 94 1013.0
20260506080800 12 220 1.6 3.2 0.61 0.56 0.56 93 1013.0
20260506080256 12 182 1.6 3.2 0.48 0.48 0.48 93 1013.3